Location: ???????
(55.4362°N, 38.1183°E)
Time: 08:41:57
(UTC+00:00)

Cosmos 1356 - Visible Passes

Search period start: 18 October 2021 00:00
Search period end: 28 October 2021 00:00
Orbit: 434 x 438 km, 81.1° (Epoch: 17 October)

Date Brightness Start Highest point End Pass type
(mag) Time Alt. Az. Time Alt. Az. Time Alt. Az.
18 Oct 7.2 16:26:13 10° WNW 16:27:00 11° W 16:27:47 10° W visible
19 Oct 6.4 15:44:57 10° NW 15:47:33 21° W 15:50:11 10° SW visible
20 Oct 4.8 15:04:44 10° NNW 15:07:59 43° W 15:11:13 10° S visible
21 Oct 6.7 03:14:31 10° SE 03:17:00 19° E 03:19:29 10° NE visible
21 Oct 7.4 16:01:20 10° WNW 16:01:53 10° W 16:02:28 10° W visible
22 Oct 6.5 15:19:50 10° NW 15:22:25 20° W 15:25:01 10° SW visible
23 Oct 5.0 03:28:14 10° SSE 03:31:25 40° E 03:34:38 10° NNE visible
24 Oct 6.5 02:49:18 10° SE 02:51:48 20° E 02:54:20 10° NE visible
24 Oct 7.5 15:36:30 10° W 15:36:41 10° W 15:36:54 10° W visible
25 Oct 6.6 14:54:39 10° NW 14:57:12 20° W 14:59:45 10° SW visible
26 Oct 4.9 03:02:59 10° SSE 03:06:11 41° E 03:09:24 10° NNE visible
27 Oct 6.3 02:24:00 10° SE 02:26:33 20° E 02:29:06 10° NE visible
